This is the latest recevied weather packets stored in our database for station/object KD8DNS. If no packets are shown the sender has not sent any weather packets the latest 10 day(s).
| Time | Temp. | Humidity | Pressure | Rain* | Wind** | Luminosity | Snow |
|---|---|---|---|---|---|---|---|
| 1788452945 | 34.44° C | 56% | 1020.1 hPa | 0 mm | - | 617 W/m² | - |
| 1788452642 | 34.44° C | 55% | 1020.1 hPa | 0 mm | - | 613 W/m² | - |
| 1788452337 | 34.44° C | 54% | 1020 hPa | 0 mm | - | 595 W/m² | - |
| 1788452032 | 34.44° C | 57% | 1020.2 hPa | 0 mm | - | 581 W/m² | - |
| 1788451728 | 34.44° C | 57% | 1020.2 hPa | 0 mm | - | 581 W/m² | - |
| 1788451427 | 34.44° C | 55% | 1020.1 hPa | 0 mm | - | 583 W/m² | - |
| 1788451125 | 34.44° C | 54% | 1020.1 hPa | 0 mm | - | 596 W/m² | - |
| 1788450821 | 34.44° C | 56% | 1020.1 hPa | 0 mm | - | 592 W/m² | - |
| 1788450516 | 34.44° C | 54% | 1020.2 hPa | 0 mm | - | 610 W/m² | - |
| 1788450232 | 33.89° C | 54% | 1020.3 hPa | 0 mm | - | 582 W/m² | - |
| 1788449907 | 33.89° C | 55% | 1020.2 hPa | 0 mm | - | 579 W/m² | - |
| 1788449603 | 33.89° C | 56% | 1020.3 hPa | 0 mm | - | 574 W/m² | - |
| 1788449300 | 33.89° C | 56% | 1020.1 hPa | 0 mm | - | 529 W/m² | - |
| 1788448995 | 33.89° C | 56% | 1020.2 hPa | 0 mm | - | 512 W/m² | - |
| 1788448689 | 33.89° C | 58% | 1020.3 hPa | 0 mm | - | 526 W/m² | - |
| 1788448380 | 33.89° C | 58% | 1020.3 hPa | 0 mm | - | 504 W/m² | - |
| 1788448079 | 33.89° C | 59% | 1020.3 hPa | 0 mm | - | 465 W/m² | - |
| 1788447774 | 33.89° C | 59% | 1020.1 hPa | 0 mm | - | 444 W/m² | - |
| 1788447470 | 33.33° C | 61% | 1020.3 hPa | 0 mm | - | 452 W/m² | - |
| 1788447165 | 32.78° C | 61% | 1020.2 hPa | 0 mm | - | 483 W/m² | - |
| 1788446863 | 32.78° C | 62% | 1020.2 hPa | 0 mm | - | 469 W/m² | - |
| 1788446559 | 32.78° C | 61% | 1020.1 hPa | 0 mm | - | 439 W/m² | - |
| 1788446255 | 32.78° C | 62% | 1020.1 hPa | 0 mm | - | 435 W/m² | - |
| 1788445951 | 32.78° C | 62% | 1020.1 hPa | 0 mm | - | 439 W/m² | - |
| 1788445646 | 32.78° C | 64% | 1020.1 hPa | 0 mm | - | 427 W/m² | - |
* Rain latest hour (hover to see other rain measurements)
** Current wind speed in m/s (hover to see current wind gust speed)